Minot, ND

1:07 PM CDT on June 26, 2017 (GMT -0500)
Minot International

Weather History for KMOT - August, 2012

Change the Weather History Date:

Thursday, August 16, 2012

  Actual Average Record
Temperature  
Mean Temperature 62 °F 69 °F  
Max Temperature 73 °F 82 °F 103 °F (1903)
Min Temperature 51 °F 56 °F 40 °F (1943)
Degree Days  
Heating Degree Days 3    
Cooling Degree Days 0 5  
Month to date cooling degree days 53 93  
Year to date cooling degree days 450 351  
Since 1 June cooling degree days 445 335  
Growing Degree Days 12 (Base 50)    
Moisture  
Dew Point 40 °F    
Average Humidity 53    
Maximum Humidity 83    
Minimum Humidity 23    
Precipitation  
Precipitation 0.00 in 0.07 in 2.14 in (1985)
Month to date precipitation 0.90 1.07  
Year to date precipitation 10.59 12.47  
Sea Level Pressure  
Sea Level Pressure 30.13 in    
Wind  
Wind Speed 10 mph (NW)    
Max Wind Speed 18 mph    
Max Gust Speed 26 mph    
Visibility 10 miles    
Events      
T = Trace of Precipitation, MM = Missing Value Source: NWS Daily Summary

Daily Weather History Graph

Daily Weather History Graph

Search for Another Location

Airport or City:

Trip Planner

Search our weather history database for the weather conditions in past years. The results will help you decide how hot, cold, wet, or windy it might be!

Date:

Astronomy

Aug. 16, 2012 Rise Set
Actual Time 6:41 AM CDT 8:56 PM CDT
Civil Twilight 6:07 AM CDT 9:30 PM CDT
Nautical Twilight 5:24 AM CDT 10:12 PM CDT
Astronomical Twilight 4:35 AM CDT 11:00 PM CDT
Moon 5:42 AM CDT (8/16) 8:03 PM CDT (8/16)
Length of Visible Light 15h 23m
Length of Day
14h 14m
Waning Crescent, 1% of the Moon is Illuminated
Aug 16
Waning Crescent
Aug 17
New
Aug 24
First Quarter
Aug 31
Full
Sep 8
Last Quarter

Hourly Weather History & Observations

Time (CDT) Temp. Dew Point Humidity Pressure Visibility Wind Dir Wind Speed Gust Speed Precip Events Conditions
12:54 AM 55.9 °F 44.1 °F 64% 30.09 in 10.0 mi West 13.8 mph - N/A   Mostly Cloudy
1:54 AM 54.0 °F 45.0 °F 72% 30.09 in 10.0 mi WNW 12.7 mph - N/A   Mostly Cloudy
2:54 AM 53.1 °F 45.0 °F 74% 30.11 in 10.0 mi West 15.0 mph - N/A   Scattered Clouds
3:54 AM 53.1 °F 45.0 °F 74% 30.12 in 10.0 mi West 13.8 mph - N/A   Partly Cloudy
4:54 AM 51.1 °F 45.0 °F 80% 30.12 in 10.0 mi WNW 12.7 mph - N/A   Clear
5:54 AM 51.1 °F 45.0 °F 80% 30.13 in 10.0 mi West 12.7 mph - N/A   Clear
6:54 AM 51.1 °F 46.0 °F 83% 30.14 in 10.0 mi WNW 11.5 mph - N/A   Clear
7:54 AM 53.1 °F 46.0 °F 77% 30.16 in 10.0 mi WNW 13.8 mph - N/A   Clear
8:54 AM 55.9 °F 45.0 °F 67% 30.18 in 10.0 mi NW 15.0 mph - N/A   Clear
9:54 AM 60.1 °F 42.1 °F 51% 30.19 in 10.0 mi NNW 10.4 mph - N/A   Clear
10:54 AM 63.0 °F 37.9 °F 40% 30.19 in 10.0 mi NNW 13.8 mph 23.0 mph N/A   Clear
11:54 AM 66.0 °F 35.1 °F 32% 30.19 in 10.0 mi NW 18.4 mph 24.2 mph N/A   Clear
12:54 PM 66.9 °F 36.0 °F 32% 30.18 in 10.0 mi NW 11.5 mph 20.7 mph N/A   Clear
1:54 PM 70.0 °F 37.0 °F 30% 30.16 in 10.0 mi NNW 13.8 mph 18.4 mph N/A   Clear
2:54 PM 71.1 °F 36.0 °F 28% 30.14 in 10.0 mi NW 11.5 mph 21.9 mph N/A   Clear
3:54 PM 72.0 °F 36.0 °F 27% 30.13 in 10.0 mi NNW 8.1 mph - N/A   Clear
4:54 PM 72.0 °F 34.0 °F 25% 30.12 in 10.0 mi NW 3.5 mph - N/A   Clear
5:54 PM 73.0 °F 34.0 °F 24% 30.11 in 10.0 mi NW 8.1 mph - N/A   Clear
6:54 PM 72.0 °F 36.0 °F 27% 30.10 in 10.0 mi NNW 6.9 mph - N/A   Clear
7:54 PM 70.0 °F 37.9 °F 31% 30.09 in 10.0 mi NW 5.8 mph - N/A   Clear
8:54 PM 64.0 °F 39.0 °F 40% 30.10 in 10.0 mi Calm Calm - N/A   Clear
9:54 PM 57.9 °F 39.0 °F 49% 30.11 in 10.0 mi Calm Calm - N/A   Clear
10:54 PM 55.0 °F 39.9 °F 57% 30.11 in 10.0 mi Calm Calm - N/A   Clear
11:54 PM 55.0 °F 44.1 °F 67% 30.12 in 10.0 mi SSW 3.5 mph - N/A   Clear